"2022-11-22 00:01:00",883102,-4.022012,-4.475312,-8.868102,7.982358,-8.014565,8.044581,-0.7355118,0,-15.23467,7.489995,0,0.004,7999,0,0,0,6.286385,6.551857,6.574692,6.528091,6.853226,7.560547,7.379674,12.50505,12.86682,5.638657,-999,-999,9.170975,0,-3.138688,-3.544204,-3.897307,0.30272,37.21562,37.65869,37.82597,38.18314,37.61348,37.64287,37.50497,38.77089,33.82704,0.6687434,0.6891742,0.6969594,0.7137129,0.6870769,0.6884398,0.6820548,0.7416725,0.5215778,1.000038,8.191822,13.16973,345.3,346.5,336.5,-9.56,6.442
"2022-11-22 00:02:00",883103,-4.075782,-4.496572,-9.268598,7.98554,-8.070611,8.060971,-1.046669,0,-15.4574,7.48999,0,0.004,7999,0,0,0,6.289658,6.56498,6.604291,6.53137,6.853226,7.560547,7.373026,12.50834,12.87027,5.638657,-999,-999,9.170975,0.004374671,-3.138688,-3.544204,-3.896453,0.3025649,37.2111,37.65869,37.82597,38.18766,37.61348,37.64287,37.4982,38.79802,33.83382,0.6685362,0.6891742,0.6969594,0.713926,0.6870768,0.6884398,0.6817415,0.7429727,0.5218562,1.000051,8.191822,13.16604,345,346.5,336.3,-9.84,6.447
"2022-11-22 00:03:00",883104,-4.07578,-4.48594,-9.325867,8.018341,-8.294845,8.093755,-1.046664,0,-15.41295,7.509674,0,0.004,7999,0,0,0,6.296209,6.574829,6.607567,6.528091,6.856504,7.567103,7.373019,12.50505,12.87372,5.642004,-999,-999,9.170975,0.009624272,-3.138685,-3.543382,-3.895598,0.3026361,37.2111,37.65417,37.82824,38.17862,37.63383,37.65643,37.50724,38.79123,33.83156,0.6685362,0.6889644,0.6970649,0.7134995,0.6880203,0.6890693,0.6821594,0.7426471,0.5217634,1.000064,8.191822,13.17341,345.1,346.5,336.4,-9.65,6.435
"2022-11-22 00:04:00",883105,-4.086533,-4.496568,-9.268664,8.03156,-8.294854,8.106982,-0.9222056,0,-15.32387,7.532644,0,0.004,7999,0,0,0,6.296209,6.584663,6.614126,6.528091,6.853226,7.570376,7.369743,12.50505,12.86025,5.638657,-999,-999,9.170975,0.0104992,-3.134418,-3.544201,-3.892184,0.3024778,37.20432,37.64965,37.82145,38.18314,37.63157,37.66774,37.51176,38.76863,33.82704,0.6682258,0.6887546,0.6967485,0.7137129,0.6879155,0.689594,0.6823683,0.7415636,0.5215778,1.000051,8.191822,13.1642,345.2,346.5,336.6,-9.51,6.449
"2022-11-22 00:05:00",883106,-4.108041,-4.496568,-9.554757,8.087196,-8.575107,8.133122,-0.9222056,0,-15.36845,7.562164,0,0.004,7999,0,0,0,6.289658,6.581467,6.581243,6.53137,6.853226,7.570381,7.37957,12.50505,12.87027,5.638657,-999,-999,9.170975,0.01574881,-3.131005,-3.544201,-3.892184,0.3023986,37.21562,37.65417,37.82597,38.17862,37.63383,37.66321,37.51402,38.80254,33.82704,0.6687436,0.6889644,0.6969594,0.7134995,0.6880203,0.6893842,0.6824727,0.74319,0.5215778,1.000077,8.191822,13.17618,345.2,346.4,336.7,-9.28,6.419
"2022-11-22 00:06:00",883107,-4.129549,-4.507199,-9.497588,8.100314,-8.631194,8.179019,-0.984436,0,-15.99218,7.565445,0,0.004,7783,0,0,0,6.319138,6.56498,6.54835,6.528091,6.856504,7.567103,7.369743,12.50505,12.86682,5.638657,-999,-999,9.170975,0.01749867,-3.129298,-3.540105,-3.887063,0.3024681,37.21788,37.65191,37.82597,38.17862,37.63383,37.66774,37.51402,38.80027,33.82478,0.6688469,0.6888595,0.6969594,0.7134995,0.6880203,0.689594,0.6824727,0.7430814,0.521485,1.000051,8.210648,13.16604,345.3,346.6,336.1,-10.07,6.454
"2022-11-22 00:07:00",883108,-4.161811,-4.528459,-9.955304,8.139682,-8.855382,8.198712,-0.9844335,-0.04818052,-16.08127,7.575284,0,0.004,7999,0,0,0,6.368256,6.571546,6.545072,6.528091,6.856504,7.560547,7.376302,12.50177,12.86682,5.641927,-999,-999,9.170975,0.02624801,-3.128445,-3.539285,-3.88621,0.3022355,37.21562,37.64965,37.82145,38.17862,37.63835,37.66999,37.51628,38.80027,33.82704,0.6687434,0.6887546,0.6967485,0.7134995,0.68823,0.689699,0.6825771,0.7430813,0.5215778,1.000064,8.214413,13.16235,345,346.4,336.1,-10,6.429
"2022-11-22 00:08:00",883109,-4.183321,-4.528461,-10.12698,8.175735,-9.135647,8.251178,-1.295591,0,-16.17042,7.611359,0,0.004,7999,0,0,0,6.30604,6.565061,6.554993,6.53137,6.853226,7.563825,7.373026,12.50505,12.87027,5.645274,-999,-999,9.170975,0.02799789,-3.128446,-3.537648,-3.885359,0.3021541,37.20658,37.65417,37.83049,38.17862,37.64061,37.66774,37.51402,38.77315,33.83156,0.6683293,0.6889644,0.6971703,0.7134995,0.6883349,0.689594,0.6824728,0.7417802,0.5217635,1.000077,8.214413,13.16051,345.1,346.4,336.2,-9.91,6.426
"2022-11-22 00:09:00",883110,-4.20483,-4.539092,-10.1842,8.215108,-9.527983,8.283984,-1.046664,0,-15.76952,7.640894,0,0.004,7999,0,0,0,6.289658,6.574829,6.574684,6.537926,6.859782,7.567103,7.366453,12.5085,12.87372,5.645197,-999,-999,9.170975,0.03674724,-3.127593,-3.53683,-3.885359,0.3021522,37.20884,37.65643,37.82824,38.18314,37.64061,37.66547,37.51628,38.78445,33.82704,0.6684328,0.6890694,0.6970649,0.7137127,0.6883349,0.6894889,0.6825773,0.7423218,0.5215778,1.000064,8.214413,13.16235,345.2,346.2,336.7,-9.15,6.38
"2022-11-22 00:10:00",883111,-4.247837,-4.602863,-10.127,8.300374,-9.752186,8.369349,-0.9844335,0,-15.45771,7.654022,0,0.004,7999,0,0,0,6.289658,6.571546,6.57132,6.53137,6.856504,7.57048,7.369743,12.5085,12.86715,5.645197,-999,-999,9.170975,0.03937185,-3.12246,-3.535996,-3.881929,0.3020736,37.20658,37.64965,37.82824,38.1854,37.63609,37.66547,37.50497,38.79123,33.82704,0.6683293,0.6887546,0.6970649,0.7138193,0.6881251,0.6894891,0.682055,0.742647,0.5215778,1.000077,8.214413,13.17802,345.7,346.4,337.1,-8.96,6.422
"2022-11-22 00:11:00",883112,-4.269301,-4.655967,-10.64197,8.35941,-9.92036,8.42173,-0.7977422,-0.04818096,-16.30416,7.713058,0,0.004,7999,0,0,0,6.289658,6.561697,6.568207,6.534647,6.856504,7.563825,7.386129,12.50505,12.87043,5.651739,-999,-999,9.170975,0.04724586,-3.119874,-3.535147,-3.878484,0.3020681,37.20206,37.64739,37.82371,38.17862,37.63383,37.66095,37.51628,38.76637,33.8293,0.6681223,0.6886497,0.6968539,0.7134996,0.6880203,0.6892791,0.6825771,0.7414551,0.5216706,1.000051,8.214413,13.14761,345.5,346.5,336.5,-9.57,6.442
"2022-11-22 00:12:00",883113,-4.323071,-4.666597,-10.92805,8.411984,-9.92036,8.471026,-1.108894,0,-17.0169,7.7229,0,0.004,7999,0,0,0,6.289658,6.561697,6.568207,6.534647,6.859782,7.560547,7.379578,12.50521,12.86025,5.658289,-999,-999,9.170975,0.04812079,-3.118168,-3.534328,-3.875924,0.3020681,37.21788,37.65191,37.83049,38.18314,37.63383,37.66095,37.51628,38.77993,33.82478,0.668847,0.6888595,0.6971703,0.7137129,0.6880203,0.6892791,0.6825772,0.7421059,0.521485,1.000077,8.214413,13.15867,345.4,346.8,335.9,-10.53,6.492
"2022-11-22 00:13:00",883114,-4.333872,-4.741059,-11.09972,8.444786,-10.14457,8.500554,-1.233358,0,-16.92785,7.726181,0,0.004,7999,0,0,0,6.286306,6.561697,6.55172,6.544482,6.856504,7.567103,7.363177,12.50834,12.86058,5.661642,-999,-999,9.170975,0.05512093,-3.11821,-3.536015,-3.875124,0.302066,37.21336,37.64739,37.82824,38.16958,37.63835,37.66321,37.50724,38.78219,33.82704,0.6686398,0.6886497,0.6970649,0.7130735,0.68823,0.689384,0.6821594,0.7422138,0.5215778,1.000038,8.214413,13.16051,345.4,346.7,336,-10.28,6.477
"2022-11-22 00:14:00",883115,-4.376912,-4.783606,-10.87086,8.474205,-10.14457,8.5103,-0.9222031,0,-17.01695,7.726181,0,0.004,7948,0,0,0,6.296209,6.581385,6.587713,6.544482,6.853226,7.563825,7.373026,12.5085,12.86682,5.664835,-999,-999,9.170975,0.05949577,-3.115659,-3.534386,-3.875134,0.3020649,37.20884,37.64739,37.83049,38.17862,37.63835,37.66774,37.51176,38.7528,33.8293,0.6684328,0.6886497,0.6971703,0.7134996,0.6882301,0.6895941,0.6823683,0.7408056,0.5216706,1.000064,8.214413,13.17065,345.8,346.7,335.9,-10.42,6.487
"2022-11-22 00:15:00",883116,-4.398431,-4.826139,-10.47036,8.467649,-10.08853,8.5103,-0.7977422,0,-16.70512,7.736023,0,0.004,7999,0,0,0,6.328967,6.597878,6.604202,6.534647,6.856504,7.576932,7.359901,12.51195,12.86354,5.678004,-999,-999,9.170975,0.06737056,-3.112261,-3.534404,-3.870888,0.3021423,37.2111,37.64513,37.83049,38.18314,37.64061,37.67225,37.51628,38.79123,33.82478,0.6685362,0.6885448,0.6971703,0.7137127,0.6883349,0.689804,0.6825772,0.7426471,0.521485,1.000051,8.214413,13.17986,346.2,346.8,336.3,-10.1,6.498
"2022-11-22 00:16:00",883117,-4.409242,-4.836831,-10.64201,8.44807,-9.920392,8.5103,-0.8599727,0,-17.06151,7.736021,0,0.004,7999,0,0,0,6.368256,6.587942,6.571401,6.541204,6.863058,7.563825,7.382853,12.50505,12.87043,5.684479,-999,-999,9.170975,0.0699961,-3.108026,-3.53444,-3.865807,0.3019087,37.2111,37.64965,37.83049,38.18088,37.63835,37.66547,37.51176,38.78671,33.82026,0.6685362,0.6887546,0.6971703,0.7136062,0.68823,0.6894889,0.6823683,0.7424302,0.5212994,1.000064,8.224579,13.15591,345.9,347,335.9,-10.62,6.532
"2022-11-22 00:17:00",883118,-4.43075,-4.80494,-11.27137,8.461192,-10.03249,8.5103,-1.23336,0,-17.64062,7.732742,0,0.004,7999,0,0,0,6.368256,6.588043,6.587881,6.534647,6.853226,7.573659,7.376302,12.51162,12.8637,5.678004,-999,-999,9.170975,0.07787065,-3.108026,-3.53444,-3.865807,0.3019862,37.20884,37.64739,37.82597,38.17862,37.64513,37.66999,37.51402,38.77767,33.82478,0.6684328,0.6886497,0.6969594,0.7134995,0.6885448,0.6896989,0.6824727,0.7419968,0.521485,1.000051,8.234745,13.16696,345.4,346.8,335.3,-11.16,6.51
"2022-11-22 00:18:00",883119,-4.387731,-4.783676,-11.21415,8.451248,-10.08853,8.513682,-0.9844335,0,-18.04153,7.732742,0,0.004,7999,0,0,0,6.368256,6.610926,6.624052,6.537926,6.866338,7.570381,7.363184,12.50505,12.86682,5.684479,-999,-999,9.170975,0.07874554,-3.106317,-3.53198,-3.861537,0.3019867,37.20884,37.64513,37.83049,38.18088,37.63835,37.66321,37.51628,38.78219,33.82704,0.6684328,0.6885448,0.6971703,0.7136062,0.68823,0.6893842,0.6825772,0.7422132,0.5215778,1.000026,8.234745,13.17341,345.4,346.8,334.9,-11.5,6.502
"2022-11-22 00:19:00",883120,-4.419992,-4.804935,-11.67187,8.444682,-10.14458,8.5103,-0.7355118,0,-18.30882,7.726181,0,0.004,7999,0,0,0,6.374809,6.604355,6.637085,6.54776,6.86306,7.573659,7.386129,12.50505,12.86682,5.684553,-999,-999,9.170975,0.08487018,-3.100343,-3.534437,-3.860682,0.302142,37.20432,37.64965,37.82371,38.1854,37.63835,37.66547,37.51628,38.78671,33.82704,0.6682258,0.6887546,0.6968539,0.7138196,0.68823,0.6894889,0.6825771,0.74243,0.5215779,1.000051,8.234745,13.16235,344.9,346.7,334.6,-11.74,6.487
"2022-11-22 00:20:00",883121,-4.44149,-4.783663,-12.64454,8.434842,-10.08854,8.5103,-1.046667,0,-19.51159,7.729462,0,0.004,7999,0,0,0,6.381365,6.617577,6.617144,6.551038,6.872892,7.586756,7.379578,12.5085,12.87027,5.687826,-999,-999,9.170975,0.08924451,-3.097768,-3.531963,-3.855544,0.3017538,37.20206,37.64513,37.82371,38.18088,37.63383,37.66321,37.51402,38.79123,33.82704,0.6681223,0.6885448,0.6968539,0.7136064,0.6880203,0.689384,0.6824727,0.7426471,0.5215778,1.000051,8.234745,13.17433,343.8,346.8,333.4,-13.02,6.498
"2022-11-22 00:21:00",883122,-4.441439,-4.783607,-12.30126,8.484044,-10.31274,8.549747,-0.984436,0,-18.66522,7.778666,0,0.004,7999,0,0,0,6.387911,6.617577,6.614126,6.541204,6.872892,7.567103,7.369736,12.50505,12.86354,5.694372,-999,-999,9.170975,0.09536826,-3.097739,-3.527833,-3.855509,0.3016744,37.19076,37.64739,37.82824,38.17636,37.63609,37.66095,37.50724,38.78897,33.82704,0.6676049,0.6886497,0.6970649,0.7133932,0.6881252,0.6892791,0.6821594,0.7425386,0.5215778,1.000064,8.234745,13.16328,344.4,346.8,334.5,-11.9,6.493
"2022-11-22 00:22:00",883123,-4.452193,-4.783607,-12.01518,8.503734,-10.36878,8.572589,-1.544518,0,-18.70977,7.79835,0,0.004,7999,0,0,0,6.368256,6.614212,6.597628,6.567421,6.869616,7.583488,7.369751,12.50505,12.86354,5.694298,-999,-999,9.170975,0.098868,-3.097739,-3.526195,-3.854655,0.301752,37.1885,37.64965,37.82371,38.1854,37.63383,37.66095,37.50724,38.79575,33.8293,0.6675014,0.6887546,0.6968539,0.7138193,0.6880203,0.6892791,0.6821594,0.7428642,0.5216706,1.000051,8.23851,13.16512,344.8,346.8,334.6,-11.92,6.505
"2022-11-22 00:23:00",883124,-4.462996,-4.783661,-11.958,8.507016,-10.36881,8.58594,-0.984436,0,-18.888,7.804916,0,0.004,7999,0,0,0,6.368256,6.610926,6.607564,6.557594,6.876167,7.586761,7.369751,12.50505,12.86682,5.697645,-999,-999,9.170975,0.09974432,-3.093515,-3.527063,-3.848735,0.3016719,37.19075,37.65191,37.83276,38.18088,37.63157,37.65643,37.50724,38.79802,33.82478,0.6676049,0.6888595,0.6972758,0.7136062,0.6879155,0.6890693,0.6821594,0.7429728,0.521485,1.000038,8.24604,13.18539,344.9,346.9,334.4,-12.14,6.519
"2022-11-22 00:24:00",883125,-4.463021,-4.836839,-12.98788,8.490601,-10.593,8.582438,-0.6732839,0,-20.09078,7.804916,0,0.004,7999,0,0,0,6.364985,6.614212,6.620687,6.560865,6.879443,7.573659,7.369751,12.50505,12.86354,5.694372,-999,-999,9.170975,0.1093691,-3.088404,-3.524615,-3.845332,0.3019033,37.18624,37.64965,37.83049,38.17862,37.63609,37.66774,37.50949,38.79349,33.82704,0.667398,0.6887546,0.6971703,0.7134995,0.6881252,0.689594,0.6822638,0.7427556,0.5215779,1.000051,8.257336,13.17065,343.8,346.6,333.2,-13.05,6.47
"2022-11-22 00:25:00",883126,-4.484529,-4.826209,-13.04507,8.507115,-10.70508,8.608678,-1.108897,0,-19.55618,7.804916,0,0.004,7999,0,0,0,6.355164,6.610926,6.613953,6.551038,6.882721,7.58021,7.382853,12.50505,12.86354,5.697645,-999,-999,9.170975,0.110244,-3.08755,-3.524614,-3.845332,0.3014393,37.1885,37.64061,37.82371,38.17636,37.63383,37.66321,37.50272,38.76637,33.82026,0.6675014,0.688335,0.6968539,0.713393,0.6880203,0.6893842,0.6819504,0.7414548,0.5212994,1.000064,8.257336,13.17341,343.8,346.7,333.8,-12.57,6.475
"2022-11-22 00:26:00",883127,-4.484529,-4.826208,-13.04502,8.520134,-10.64899,8.618523,-1.046664,0,-19.73429,7.811468,0,0.004,7999,0,0,0,6.368256,6.614212,6.623878,6.557579,6.879446,7.580215,7.382853,12.50505,12.86354,5.697571,-999,-999,9.170975,0.1119939,-3.086696,-3.524614,-3.843624,0.3012908,37.1885,37.64739,37.82371,38.18314,37.63835,37.66547,37.50271,38.78897,33.8293,0.6675014,0.6886497,0.6968539,0.7137129,0.68823,0.6894889,0.6819504,0.7425386,0.5216706,1.000051,8.257336,13.16788,343.9,346.8,333.6,-12.82,6.496
"2022-11-22 00:27:00",883128,-4.506037,-4.836838,-13.61717,8.569305,-11.04132,8.651329,-0.984436,0,-20.17976,7.804916,0,0.004,7999,0,0,0,6.348628,6.614212,6.630348,6.567421,6.876167,7.583483,7.373026,12.50505,12.87027,5.687752,-999,-999,9.170975,0.1198685,-3.082429,-3.524614,-3.839357,0.3016785,37.19302,37.64739,37.82824,38.18314,37.63609,37.66321,37.50724,38.79575,33.82478,0.6677084,0.6886497,0.6970649,0.7137127,0.6881251,0.689384,0.6821594,0.7428643,0.5214851,1.000064,8.257336,13.16696,343.6,346.5,333.1,-13.08,6.45
"2022-11-22 00:28:00",883129,-4.473774,-4.826208,-12.12956,8.605517,-11.0413,8.684128,-0.9222031,0,-17.81875,7.834412,0,0.004,7999,0,0,0,6.332253,6.610926,6.610583,6.567413,6.882721,7.58021,7.373026,12.51162,12.86354,5.700918,-999,-999,9.170975,0.1207434,-3.078162,-3.524614,-3.83509,0.3012924,37.19302,37.64739,37.82597,38.1741,37.63835,37.66095,37.50045,38.76184,33.82252,0.6677084,0.6886497,0.6969594,0.7132866,0.68823,0.6892791,0.681846,0.7412387,0.5213922,1.000051,8.257336,13.18907,345.2,346.7,335.6,-10.72,6.484
"2022-11-22 00:29:00",883130,-4.420002,-4.804946,-10.98526,8.63165,-10.98525,8.726857,-1.171127,0,-16.43779,7.86067,0,0.004,7999,0,0,0,6.328977,6.610926,6.620336,6.57724,6.885996,7.586761,7.379578,12.50505,12.8637,5.694298,-999,-999,9.170975,0.1268681,-3.077309,-3.521337,-3.835943,0.3012932,37.19528,37.64513,37.82597,38.1854,37.64061,37.66774,37.51402,38.78897,33.82252,0.6678119,0.6885448,0.6969594,0.7138195,0.6883349,0.689594,0.6824727,0.7425386,0.5213922,1.000089,8.257336,13.16973,346.5,347,337.2,-9.45,6.539
"2022-11-22 00:30:00",883131,-4.409248,-4.783685,-10.75639,8.654607,-11.09734,8.746547,-1.108897,0,-15.68048,7.883636,0,0.004,7999,0,0,0,6.328977,6.614212,6.623619,6.57724,6.885996,7.586761,7.379578,12.51523,12.87027,5.700918,-999,-999,9.170975,0.1303679,-3.075602,-3.520517,-3.83509,0.3011385,37.19075,37.64739,37.82824,38.1741,37.63383,37.66321,37.51402,38.78671,33.82704,0.6676049,0.6886497,0.6970649,0.7132866,0.6880203,0.689384,0.6824727,0.74243,0.5215779,1.000077,8.257336,13.17065,346.9,347,338,-8.57,6.537
"2022-11-22 00:31:00",883132,-4.376984,-4.783685,-10.52752,8.671127,-10.92918,8.766113,-1.17113,0,-15.94774,7.883636,0,0.004,7999,0,0,0,6.368256,6.630694,6.626991,6.57724,6.889272,7.586761,7.379578,12.50505,12.86682,5.697571,-999,-999,9.170975,0.1321178,-3.067067,-3.519697,-3.83253,0.3011407,37.1885,37.65643,37.82824,38.17862,37.63835,37.66999,37.51628,38.75959,33.81574,0.6675014,0.6890693,0.6970649,0.7135,0.68823,0.6896989,0.6825771,0.7411305,0.5211138,1.000064,8.268631,13.18907,347.2,347.2,337.8,-9.08,6.59
"2022-11-22 00:32:00",883133,-4.355476,-4.783685,-11.09967,8.700519,-11.20942,8.7892,-0.6732839,0,-16.12593,7.890193,0,0.004,7999,0,0,0,6.368256,6.633881,6.633461,6.573873,6.889272,7.590034,7.389404,12.50834,12.86354,5.694298,-999,-999,9.170975,0.1399923,-3.067067,-3.51724,-3.828263,0.3011407,37.19076,37.64287,37.82597,38.18766,37.63835,37.66774,37.51176,38.78445,33.8293,0.6676049,0.6884398,0.6969594,0.713926,0.68823,0.689594,0.6823683,0.7423216,0.5216706,1.000064,8.276161,13.18078,346.7,347.1,337.6,-9.04,6.558
"2022-11-22 00:33:00",883134,-4.344721,-4.783684,-10.92803,8.726857,-11.26547,8.80219,-1.171132,0,-15.90321,7.90331,0,0.004,7999,0,0,0,6.387922,6.633881,6.649961,6.570699,6.889272,7.580215,7.37957,12.51162,12.86025,5.697571,-999,-999,9.170975,0.1417422,-3.067067,-3.514781,-3.825702,0.3011399,37.1885,37.65191,37.82824,38.18314,37.63383,37.66774,37.50949,38.78445,33.82252,0.6675014,0.6888595,0.6970649,0.7137129,0.6880204,0.689594,0.6822638,0.7423216,0.5213922,1.000115,8.276161,13.16328,347,347.1,337.9,-8.75,6.56
"2022-11-22 00:34:00",883135,-4.344721,-4.815575,-10.75639,8.733418,-11.15338,8.815315,-0.7977448,0,-15.59138,7.909879,0,0.004,7999,0,0,0,6.417389,6.63725,6.656433,6.57724,6.892548,7.590034,7.379578,12.51491,12.86682,5.697571,-999,-999,9.170975,0.1426172,-3.0628,-3.514781,-3.824848,0.3010619,37.19076,37.65191,37.82597,38.17636,37.64061,37.66095,37.51176,38.79123,33.83156,0.6676049,0.6888595,0.6969594,0.7133932,0.6883349,0.6892793,0.6823683,0.742647,0.5217635,1.000064,8.279926,13.16512,347.3,347.3,338.3,-8.55,6.596
"2022-11-22 00:35:00",883136,-4.34471,-4.847454,-11.04246,8.77608,-11.43362,8.838397,-1.108902,0,-15.68047,7.945969,0,0.004,7999,0,0,0,6.381368,6.633881,6.669556,6.583781,6.892548,7.590034,7.386129,12.50834,12.87027,5.697571,-999,-999,9.170975,0.149616,-3.057664,-3.514763,-3.822268,0.301217,37.18398,37.64513,37.82597,38.17184,37.63609,37.66547,37.51176,38.78671,33.82478,0.6672946,0.6885448,0.6969594,0.71318,0.6881251,0.6894891,0.6823683,0.74243,0.521485,1.000038,8.279926,13.15959,347.2,347.1,338.3,-8.26,6.563
"2022-11-22 00:36:00",883137,-4.366161,-4.868651,-12.01511,8.759557,-11.43362,8.831721,-1.357821,0,-17.4178,7.942688,0,0.004,7999,0,0,0,6.371534,6.63725,6.643491,6.583781,6.892548,7.593307,7.386129,12.51162,12.86682,5.700918,-999,-999,9.170975,0.1522393,-3.056779,-3.514726,-3.814548,0.301062,37.19302,37.64513,37.83049,38.17636,37.63609,37.66774,37.50949,38.79123,33.82026,0.6677084,0.6885448,0.6971703,0.713393,0.6881252,0.689594,0.6822638,0.7426471,0.5212994,1.000051,8.279926,13.17802,346.1,347.1,336.6,-9.98,6.556
"2022-11-22 00:37:00",883138,-4.430686,-4.911172,-12.87333,8.772679,-11.32152,8.851395,-1.233363,0,-18.97694,7.962372,0,0.004,7999,0,0,0,6.371534,6.63725,6.637085,6.57724,6.892548,7.593307,7.382853,12.51162,12.86682,5.700918,-999,-999,9.170975,0.1522393,-3.055925,-3.514726,-3.811135,0.3009069,37.19075,37.64287,37.82371,38.17636,37.63609,37.66095,37.51176,38.77315,33.82026,0.6676049,0.6884398,0.6968539,0.7133932,0.6881251,0.6892793,0.6823683,0.7417802,0.5212994,1,8.283692,13.16973,345.3,347.3,335.1,-11.68,6.599
"2022-11-22 00:38:00",883139,-4.462916,-4.953658,-13.96041,8.792363,-11.76989,8.88103,-0.7977422,0,-19.86786,7.959091,0,0.004,7999,0,0,0,6.364899,6.624046,6.620422,6.580414,6.892548,7.593307,7.382853,12.50834,12.86354,5.697571,-999,-999,9.170975,0.1548627,-3.049071,-3.514695,-3.804274,0.3007525,37.19075,37.64513,37.82371,38.18314,37.63835,37.66547,37.51176,38.77541,33.8293,0.6676049,0.6885448,0.6968539,0.7137127,0.68823,0.6894889,0.6823683,0.7418892,0.5216706,1.000026,8.302525,13.19,344.3,347,334.2,-12.28,6.539
"2022-11-22 00:39:00",883140,-4.548932,-4.996161,-13.04497,8.812146,-11.76989,8.887479,-1.17113,0,-18.44236,7.955811,0,0.004,7999,0,0,0,6.361542,6.620768,6.61041,6.583692,6.892548,7.596581,7.379578,12.50834,12.86682,5.700918,-999,-999,9.170975,0.160112,-3.046506,-3.513869,-3.804267,0.3008304,37.19075,37.64287,37.82824,38.18088,37.63609,37.66547,37.51176,38.78897,33.82026,0.667605,0.6884399,0.6970649,0.7136062,0.6881251,0.6894891,0.6823683,0.7425386,0.5212994,1.000038,8.298759,13.17341,345.4,347,335.6,-10.94,6.545
"2022-11-22 00:40:00",883141,-4.602705,-5.059946,-12.75889,8.828438,-11.93803,8.913719,-1.357824,0,-17.77415,7.962372,0,0.004,7999,0,0,0,6.348615,6.614212,6.607046,6.577151,6.892548,7.599854,7.382853,12.50834,12.86682,5.697571,-999,-999,9.170975,0.1618621,-3.045657,-3.513056,-3.804274,0.3006755,37.18398,37.64739,37.82824,38.17862,37.64061,37.66774,37.51402,38.77767,33.82252,0.6672946,0.6886497,0.6970649,0.7134996,0.6883349,0.689594,0.6824727,0.741998,0.5213922,1.000038,8.302525,13.1771,345.7,347,336.3,-10.2,6.538
"2022-11-22 00:41:00",883142,-4.634987,-5.102487,-12.41559,8.880918,-12.16221,8.939954,-1.108899,0,-16.8832,7.962372,0,0.004,7999,0,0,0,6.325536,6.620855,6.620514,6.583781,6.892548,7.599854,7.376302,12.50505,12.86682,5.700918,-999,-999,9.170975,0.1627376,-3.042253,-3.511429,-3.800873,0.3006769,37.19075,37.64513,37.82597,38.1741,37.63383,37.66999,37.51176,38.78219,33.818,0.6676049,0.6885448,0.6969594,0.7132866,0.6880203,0.689699,0.6823683,0.7422145,0.5212066,1.000038,8.302525,13.16235,346.3,346.9,337.2,-9.2,6.52
"2022-11-22 00:42:00",883143,-4.678003,-5.123747,-12.35838,8.92027,-12.21825,8.985992,-1.108897,0,-16.9723,7.982046,0,0.004,7999,0,0,0,6.332171,6.61749,6.604029,6.583692,6.892548,7.593307,7.382853,12.50505,12.86682,5.704117,-999,-999,9.170975,0.1644875,-3.037133,-3.50897,-3.800019,0.3016076,37.19075,37.64061,37.83049,38.17636,37.63835,37.66095,37.51402,38.78445,33.82026,0.6676049,0.6883349,0.6971703,0.713393,0.68823,0.6892791,0.6824728,0.7423216,0.5212994,1.000013,8.302525,13.18447,346.6,347.1,337.2,-9.4,6.556
"2022-11-22 00:43:00",883144,-4.699561,-5.166323,-12.64447,8.959865,-12.21827,9.018692,-1.233363,0,-17.50688,8.034556,0,0.004,7494,0,0,0,6.312269,6.610926,6.593918,6.587051,6.892548,7.596581,7.376302,12.51491,12.86682,5.704191,-999,-999,9.170975,0.1706143,-3.03632,-3.508198,-3.795803,0.3016063,37.1885,37.65191,37.82824,38.17636,37.63835,37.66547,37.50724,38.8161,33.82704,0.6675014,0.6888595,0.6970649,0.713393,0.68823,0.6894889,0.6821594,0.7438415,0.5215778,1.000013,8.302525,13.16328,346.5,347.2,337,-9.81,6.59
"2022-11-22 00:44:00",883145,-4.731849,-5.208872,-12.58725,8.979317,-12.44246,9.058171,-1.295593,0,-17.19506,8.041122,0,0.004,7353,0,0,0,6.364899,6.610926,6.610674,6.580421,6.892548,7.599854,7.382853,12.50505,12.86682,5.704264,-999,-999,9.170975,0.1732395,-3.035475,-3.506569,-3.794106,0.3016057,37.19302,37.64513,37.83049,38.16958,37.63383,37.67225,37.50949,38.78671,33.82252,0.6677085,0.6885448,0.6971704,0.7130734,0.6880203,0.689804,0.6822639,0.74243,0.5213922,1.000038,8.302525,13.16604,346.7,347.2,337.3,-9.43,6.585
"2022-11-22 00:45:00",883146,-4.774866,-5.240764,-12.81611,9.045054,-12.66665,9.107254,-0.984436,0,-17.06141,8.041122,0,0.004,7196,0,0,0,6.364899,6.620946,6.603935,6.583692,6.892548,7.599854,7.379578,12.50834,12.86682,5.700844,-999,-999,9.170975,0.1732396,-3.032062,-3.505751,-3.7924,0.3013729,37.1885,37.65191,37.82597,38.1741,37.63835,37.67225,37.51402,38.79575,33.82026,0.6675014,0.6888595,0.6969594,0.7132865,0.68823,0.6898041,0.6824727,0.7428641,0.5212994,1.000026,8.302525,13.1688,346.8,347.2,337.4,-9.34,6.59
"2022-11-22 00:46:00",883147,-4.785624,-5.283288,-12.58726,9.081126,-12.6106,9.136897,-0.7977422,0,-16.97233,8.044398,0,0.004,7823,0,0,0,6.361542,6.614212,6.60066,6.576973,6.892548,7.596581,7.379578,12.51491,12.86682,5.70739,-999,-999,9.170975,0.1784894,-3.02609,-3.504933,-3.786429,0.3012175,37.18623,37.64287,37.82145,38.18088,37.64061,37.66999,37.50949,38.80027,33.818,0.667398,0.6884398,0.6967485,0.7136062,0.6883349,0.689699,0.6822638,0.7430813,0.5212066,1.000051,8.317585,13.18078,347.2,347.5,337.5,-9.41,6.632